Location: Foligno
(42.9600°N, 12.7050°E)
Time: 04:43:19
(UTC+01:00)

ISS - Pass Details

Date: 18 November 2017
Orbit: 402 x 407 km, 51.6° (Epoch: 13 December)

Event Time Altitude Azimuth Distance (km) Brightness Sun altitude
Exits shadow 05:27:07 28° 209° (SSW) 796 -2.6 -17.9°
Drops below altitude 10° 05:29:35 10° 161° (SSE) 1,447 -0.7 -17.4°
Sets 05:31:49 0° 150° (SSE) 2,301 0.6 -17.0°
